Regional Weather Roundup
Issued by NWS

Home | Current Version | Previous Version | Graphics & Text | Print | Product List | Glossary On
Versions: 1 2 3 4 5 6 7 8 9 10 11 12 13 14 15 16 17 18 19 20 21 22 23 24 25 26 27 28 29 30 31 32 33 34 35 36 37 38 39 40 41 42 43 44 45 46 47 48 49 50
000
ASUS43 KLSX 051259
RWRMO

WEATHER SUMMARY FOR MISSOURI
NATIONAL WEATHER SERVICE SPRINGFIELD MO
800 AM CDT SUN JUL 05 2015

NOTE: "FAIR" INDICATES FEW OR NO CLOUDS BELOW 12,000 FEET WITH NO
       SIGNIFICANT WEATHER AND/OR OBSTRUCTIONS TO VISIBILITY.
       CURRENT SKY AND/OR WEATHER CONDITIONS ARE NOT AVAILABLE FOR
       CHILLICOTHE AND FARMINGTON.

MOZ001>031-035>038-043-044-053-054-051400-
...NORTHERN AND WESTERN MISSOURI...

CITY           SKY/WX    TMP DP  RH WIND       PRES   REMARKS
KANSAS CTY INT PTSUNNY   72  68  87 SE13      29.98S
KANSAS C DTWN  MOSUNNY   75  68  78 S8        29.98S
LEE`S SUMMIT   SUNNY     72  67  84 S9        30.01S
ST JOSEPH      MOSUNNY   71  66  84 S6        29.98R HAZE
CHILLICOTHE      N/A     71  67  87 S5        30.02S
KIRKSVILLE     HVY RAIN  69  65  86 SE7       30.03S FOG

$$
MOZ066>068-077>081-088>096-101>105-051400-
...SOUTHWEST MISSOURI...

CITY           SKY/WX    TMP DP  RH WIND       PRES   REMARKS
SPRINGFIELD    CLOUDY    72  70  93 S12       30.05S
JOPLIN         SUNNY     75  69  81 S10       30.03R

$$
MOZ032>034-039>042-045>050-055>058-069>072-051400-
...CENTRAL MISSOURI...

CITY           SKY/WX    TMP DP  RH WIND       PRES   REMARKS
COLUMBIA       SUNNY     70  69  97 S9        30.04S FOG
JEFFERSON CITY SUNNY     70  68  93 E6        30.04R FOG
ROLLA          CLOUDY    68  67  96 S9        30.07R FOG
SEDALIA        SUNNY     73  69  87 S8        30.04S FOG
OSAGE BEACH    CLOUDY    70  66  88 S7        30.06R

$$
MOZ051-052-059>065-051400-
...EAST CENTRAL MISSOURI...

CITY           SKY/WX    TMP DP  RH WIND       PRES   REMARKS
ST LOUIS INTL  SUNNY     73  65  75 SE5       30.07R HAZE
SPIRIT OF STL  SUNNY     69  65  86 CALM      30.05S FOG
ST CHARLES     SUNNY     71  68  90 E6        30.05S FOG

$$
MOZ072>076-082>087-097>100-106>115-051400-
...SOUTH CENTRAL AND SOUTHEAST MISSOURI...

CITY           SKY/WX    TMP DP  RH WIND       PRES   REMARKS
CAPE GIRARDEAU FOG       70  70 100 SE3       30.07S VSB 1/4
FARMINGTON     CLOUDY    66  66 100 CALM      30.13R VSB<1/4
POPLAR BLUFF   FOG       70  70 100 S3        30.06F VSB<1/4
WEST PLAINS    CLOUDY    71  69  93 SE3       30.10S FOG

$$



USA.gov is the U.S. government's official web portal to all federal, state and local government web resources and services.